BCS2882 EGNX-EIDW

Flight info

Callsign BCS2882
Flight time N/A
Altitude 24000
Route TNT Q4 WAL L10 PENIL L28 LELDO M145 BAGSO BAGSO4L
Aircraft B77L/H-SDE1E2E3FGHIJ2J3J4J5M1RWXYZ/LB1D1

Departure

Time 2026-05-07 19:11
Airport East Midlands Airport (EGNX)

Arrival

Time N/A
Airport Dublin Airport (EIDW)
Time Latitude Longitude Altitude Speed Heading
2026-05-07 18:53 52.82750 -1.34867 305 ft 0 kts 178°
2026-05-07 19:04 52.82752 -1.34867 278 ft 2 kts 178°
2026-05-07 19:04 52.82778 -1.34869 304 ft 4 kts 178°
2026-05-07 19:04 52.82802 -1.34870 305 ft 4 kts 183°
2026-05-07 19:05 52.82823 -1.34858 305 ft 4 kts 243°
2026-05-07 19:05 52.82828 -1.34817 303 ft 4 kts 270°
2026-05-07 19:05 52.82828 -1.34799 303 ft 1 kts 268°
2026-05-07 19:05 52.82828 -1.34798 303 ft 0 kts 268°
2026-05-07 19:08 52.82828 -1.34806 305 ft 4 kts 268°
2026-05-07 19:08 52.82824 -1.34963 307 ft 15 kts 269°
2026-05-07 19:08 52.82822 -1.35136 308 ft 15 kts 267°
2026-05-07 19:09 52.82856 -1.35247 310 ft 11 kts
2026-05-07 19:09 52.82894 -1.35140 308 ft 12 kts 85°
2026-05-07 19:09 52.82897 -1.35006 308 ft 12 kts 83°
2026-05-07 19:09 52.82959 -1.34938 311 ft 12 kts 357°
2026-05-07 19:10 52.83043 -1.34934 309 ft 12 kts 25°
2026-05-07 19:10 52.83064 -1.34777 307 ft 21 kts 88°
2026-05-07 19:10 52.83069 -1.34359 304 ft 61 kts 88°
2026-05-07 19:10 52.83094 -1.33240 314 ft 131 kts 87°
2026-05-07 19:11 52.83134 -1.31436 456 ft 168 kts 87°
2026-05-07 19:11 52.83119 -1.29531 1142 ft 170 kts 95°
2026-05-07 19:11 52.83036 -1.27558 1852 ft 173 kts 97°
2026-05-07 19:11 52.82977 -1.25532 2503 ft 187 kts 85°
2026-05-07 19:12 52.83525 -1.23392 2763 ft 224 kts 50°
2026-05-07 19:12 52.84931 -1.21953 3041 ft 257 kts 10°
2026-05-07 19:12 52.86690 -1.22286 3815 ft 265 kts 332°
2026-05-07 19:12 52.88042 -1.24352 4763 ft 263 kts 297°
2026-05-07 19:13 52.88835 -1.27032 5601 ft 265 kts 295°
2026-05-07 19:13 52.89738 -1.29715 6034 ft 268 kts 299°
2026-05-07 19:13 52.90751 -1.32349 6021 ft 272 kts 302°
2026-05-07 19:13 52.91805 -1.34951 6032 ft 270 kts 302°
2026-05-07 19:14 52.92863 -1.37514 6159 ft 270 kts 302°
2026-05-07 19:14 52.93927 -1.40073 7037 ft 270 kts 303°
2026-05-07 19:14 52.94998 -1.42646 8044 ft 272 kts 302°